Погода в Кембридже

США     42°23′09″N   71°08′30″W
темп.,
°C
ветер,
м/с
пор.,
м/с
влажн.,
%
обл.,
%
осадки,
мм/ч
давл.,
гПа
погр.,
м
3 августа, вт
вт323:00+16зсз11780 0.0 101713
02:00+14зсз22780 0.0 101848
05:00+13з11780 0.0 101911
08:00+18з1264100 0.0 1020145
11:00+24зюз2342100 0.0 1020957
14:00+25зюз3437100 0.0 10191755
17:00+25юз3546100 0.0 1018812
20:00+20юз2467100 0.0 101988
4 августа, ср
ср423:00+18юз2471100 0.0 101987
02:00+17юз1269100 0.0 101941
05:00+15зюз1174100 0.0 101919
08:00+18з1166100 0.0 1020156
11:00+24сз0147100 0.0 1020797
14:00+25вюв3345100 0.0 10201386
17:00+21вюв3568100 0.0 1020360
20:00+18вюв238399 0.0 1021124
5 августа, чт
чт523:00+17вюв1290100 0.0 102270
02:00+16св1193100 0.0 102247
05:00+15ссв1195100 0.0 102330
08:00+17св1487100 0.0 1023239
11:00+19св3585100 0.3 1022489
14:00+19св4687100 0.4 1020584
17:00+20ссв3783100 0.0 1018509
20:00+19с1187100 0.0 101918
6 августа, пт
пт623:00+17ююз119664 0.0 102011
02:00+16зюз22980 0.0 102030
05:00+15юз11960 0.0 102021
08:00+20юз12780 0.0 1021211
11:00+28з22470 0.0 1020994
14:00+31з22340 0.0 10182276
17:00+29вюв33430 0.0 10181166
20:00+23юв37655 0.0 1018187
7 августа, сб
сб723:00+20юз39805 0.0 1018231
02:00+18юз26902 0.0 1018123
05:00+18юз2588100 0.0 1017105
08:00+22юз3774100 0.0 1017275
11:00+29юз464799 0.0 1016997
14:00+33зюз4633100 0.0 10132508
17:00+31юз5740100 0.0 10122015
20:00+26юз3959100 0.0 1012409